#timestamp,LO_Frequency,Hit 
1499569215.7,286046906.4,N
1499569235.5,286046903.7,N
1499569255.3,286046905.9,N
1499569275.2,286046906.2,N
1499569295.0,286046904.9,N
1499569295.9,286046904.9,N
1499569315.8,286046902.2,N
1499569335.6,286046904.5,N
1499569355.4,286046903.8,N
1499569375.3,286046903.9,N
1499569395.1,286046904.3,N
1499569415.8,286046903.8,N
1499569435.7,286046904.3,N
1499569455.5,286046905.1,N
1499569475.4,286046905.2,N
1499569495.2,286046902.6,N
1499569515.0,286046904.9,N
1499569515.9,286046904.9,N
1499569535.8,286046904.9,N
1499569555.6,286046904.0,N
1499569575.4,286046907.7,N
1499569595.3,286046905.6,N
1499569615.1,286046905.6,N
1499569635.9,286046907.1,N
1499569655.7,286046907.9,N
1499569675.5,286046908.4,N
1499569695.4,286046906.6,N
1499569715.2,286046903.7,N
1499569735.0,286046904.4,N
1499569735.9,286046904.4,N
1499569755.8,286046906.3,N
1499569775.6,286046906.4,N
1499569795.5,286046906.1,N
1499569815.3,286046908.4,N
1499569835.1,286046908.3,N
1499569855.9,286046908.1,N
1499569875.7,286046908.1,N
1499569895.5,286046908.2,N
1499569915.4,286046908.7,N
1499569935.2,286046909.9,N
1499569955.1,286046907.0,N
1499569956.0,286046907.0,N
1499569975.8,286046909.6,N
1499569995.6,286046909.4,N
1499570015.5,286046911.3,N
1499570035.4,286046911.0,N
1499570055.2,286046911.1,N
1499570075.1,286046911.4,N
1499570076.0,286046911.4,N
1499570095.8,286046912.9,N
1499570115.7,286046912.0,N
1499570135.5,286046911.6,N
1499570155.3,286046911.3,N
1499570175.2,286046911.2,N
1499570195.0,286046908.7,N
1499570195.9,286046908.7,N
1499570215.8,286046908.6,N
1499570235.6,286046911.4,N
1499570255.4,286046911.0,N
1499570275.3,286046910.2,N
1499570295.1,286046910.3,N
1499570315.8,286046912.6,N
1499570335.7,286046913.2,N
1499570355.5,286046911.0,N
1499570375.4,286046911.0,N
1499570395.2,286046911.4,N
1499570415.0,286046909.1,N
1499570415.9,286046909.1,N
1499570435.8,286046909.7,N
1499570455.6,286046909.3,N
1499570475.4,286046909.4,N
1499570495.3,286046909.0,N
1499570515.1,286046908.6,N
1499570535.9,286046907.1,N
1499570555.7,286046909.6,N
1499570575.5,286046905.4,N
1499570595.4,286046905.6,N
1499570615.2,286046903.8,N
1499570635.1,286046903.8,N
1499570636.0,286046903.8,N
1499570655.8,286046904.3,N
1499570675.6,286046904.3,N
1499570695.5,286046904.0,N
1499570715.3,286046902.1,N
1499570735.1,286046902.9,N
1499570755.9,286046902.3,N
1499570775.7,286046902.7,N
1499570795.6,286046905.0,N
1499570815.4,286046909.5,N
1499570835.2,286046902.2,N
1499570855.1,286046902.3,N
1499570856.0,286046902.3,N
1499570875.8,286046902.2,N
1499570895.7,286046902.8,N
1499570915.5,286046900.6,N
1499570935.3,286046901.2,N
1499570955.2,286046901.0,N
1499570975.9,286046903.6,N
1499570995.7,286046902.9,N
1499571015.6,286046902.9,N
1499571035.4,286046903.1,N
1499571055.2,286046900.8,N
1499571075.1,286046901.5,N
1499571076.0,286046901.5,N
1499571095.8,286046901.8,N
1499571115.7,286046901.9,N
1499571135.5,286046899.1,N
1499571155.3,286046899.2,N
1499571175.2,286046899.3,N
1499571195.0,286046901.5,N
1499571195.9,286046901.5,N
1499571215.7,286046901.2,N
1499571235.6,286046899.5,N
1499571255.4,286046899.7,N
1499571275.3,286046901.9,N
1499571295.1,286046900.2,N
1499571315.8,286046900.0,N
1499571335.7,286046900.2,N
1499571355.5,286046899.6,N
1499571375.4,286046899.6,N
1499571395.2,286046899.8,N
1499571415.0,286046897.4,N
1499571415.9,286046897.4,N
1499571435.8,286046900.4,N
1499571455.6,286046900.0,N
1499571475.5,286046900.4,N
1499571495.3,286046897.5,N
1499571515.1,286046899.9,N
1499571535.9,286046899.0,N
1499571555.7,286046899.4,N
1499571575.5,286046902.0,N
1499571595.4,286046899.6,N
1499571615.2,286046900.0,N
1499571635.1,286046909.5,N
1499571636.0,286046899.7,N
1499571655.8,286046899.4,N
1499571675.6,286046901.4,N
1499571695.5,286046901.4,N
1499571715.3,286046899.1,N
1499571735.1,286046899.1,N
1499571755.9,286046899.6,N
1499571775.7,286046899.4,N
1499571795.6,286046899.4,N
1499571815.4,286046899.1,N
1499571835.2,286046900.1,N
1499571855.1,286046897.5,N
1499571856.0,286046897.5,N
1499571875.8,286046898.1,N
1499571895.6,286046900.1,N
1499571915.5,286046899.4,N
1499571935.3,286046899.7,N
1499571955.2,286046900.0,N
1499571975.9,286046900.0,N
1499571995.7,286046900.4,N
1499572015.6,286046897.6,N
1499572035.4,286046899.6,N
1499572055.3,286046901.7,N
1499572075.1,286046899.4,N
1499572076.0,286046899.4,N
1499572095.8,286046900.1,N
1499572115.7,286046899.7,N
1499572135.5,286046899.7,N
1499572155.3,286046902.0,N
1499572175.2,286046901.8,N
1499572195.0,286046901.7,N
1499572195.9,286046901.7,N
1499572215.8,286046901.1,N
1499572235.6,286046901.0,N
1499572255.4,286046901.3,N
1499572275.3,286046902.7,N
1499572295.1,286046902.7,N
1499572315.9,286046902.8,N
1499572335.7,286046902.6,N
1499572355.5,286046905.2,N
1499572375.4,286046906.3,N
1499572395.2,286046902.4,N
1499572415.0,286046904.4,N
1499572415.9,286046904.4,N
1499572435.8,286046905.1,N
1499572455.6,286046900.9,N
1499572475.5,286046901.8,N
1499572495.3,286046901.0,N
1499572515.1,286046902.9,N
1499572535.9,286046905.0,N
1499572555.7,286046902.2,N
1499572575.6,286046901.3,N
1499572595.4,286046902.7,N
1499572615.2,286046902.3,N
1499572635.1,286046903.5,N
1499572636.0,286046903.5,N
1499572655.8,286046905.0,N
1499572675.6,286046904.7,N
1499572695.5,286046903.7,N
1499572715.3,286046904.5,N
1499572735.2,286046902.1,N
1499572755.9,286046903.7,N
1499572775.7,286046906.5,N
1499572795.6,286046904.2,N
